When you browse on this site, cookies collect data to enhance your experience and personalize the content and advertising you see.
Visit our Privacy Policy to learn more. By continuing to use the site, you agree to this use of cookies and data.
  • In Portugal
  • List of Countries
  • For 7 days
  • Water Temperature
  • Weather Map
  • Weather Widgets
  • user-avatar
    Login

    Hourly Weather Hobart

    Today, 23 August, Friday

    Time Temperature Precipitation Wind Pressure Humidity
    00:00 +1°C° 0 mm 2 mps 751 mmHg 90%
    01:00 +1°C° 0 mm 2 mps 751 mmHg 92%
    02:00 +1°C° 0 mm 2 mps 751 mmHg 92%
    03:00 +1°C° 0 mm 2 mps 750 mmHg 92%
    04:00 0°C° 0 mm 3 mps 750 mmHg 93%
    05:00 -1°C° 0 mm 3 mps 750 mmHg 92%
    06:00 -1°C° 0 mm 2 mps 750 mmHg 92%
    07:00 -1°C° 0 mm 2 mps 749 mmHg 92%
    08:00 +3°C° 0 mm 2 mps 749 mmHg 82%
    09:00 +5°C° 0 mm 2 mps 749 mmHg 72%
    10:00 +7°C° 0 mm 4 mps 749 mmHg 63%
    11:00 +10°C° 0 mm 3 mps 748 mmHg 61%
    12:00 +11°C° 0 mm 3 mps 747 mmHg 59%
    13:00 +13°C° 0 mm 3 mps 747 mmHg 57%
    14:00 +12°C° 0 mm 3 mps 746 mmHg 59%
    15:00 +12°C° 0 mm 3 mps 746 mmHg 62%
    16:00 +12°C° 0 mm 4 mps 745 mmHg 63%
    17:00 +10°C° 0 mm 4 mps 745 mmHg 70%
    18:00 +9°C° 0 mm 3 mps 745 mmHg 76%
    19:00 +8°C° 0 mm 3 mps 745 mmHg 82%
    20:00 +7°C° 0 mm 3 mps 745 mmHg 84%
    21:00 +7°C° 0 mm 3 mps 745 mmHg 86%
    22:00 +5°C° 0 mm 3 mps 744 mmHg 87%
    23:00 +7°C° 0 mm 3 mps 744 mmHg 85%

    Tomorrow, 24 August, Saturday

    Time Temperature Precipitation Wind Pressure Humidity
    00:00 +7°C° 0 mm 3 mps 744 mmHg 83%
    01:00 +7°C° 0 mm 4 mps 743 mmHg 81%
    02:00 +7°C° 0 mm 3 mps 743 mmHg 83%
    03:00 +5°C° 0 mm 3 mps 742 mmHg 85%
    04:00 +5°C° 0 mm 3 mps 741 mmHg 87%
    05:00 +5°C° 0 mm 3 mps 741 mmHg 87%
    06:00 +5°C° 0 mm 3 mps 741 mmHg 87%
    07:00 +5°C° 0 mm 3 mps 740 mmHg 88%
    08:00 +7°C° 0 mm 4 mps 740 mmHg 78%
    09:00 +11°C° 0 mm 4 mps 740 mmHg 69%
    10:00 +13°C° 0 mm 5 mps 739 mmHg 60%
    11:00 +14°C° 0 mm 5 mps 739 mmHg 56%
    12:00 +15°C° 0 mm 6 mps 738 mmHg 52%
    13:00 +16°C° 0 mm 6 mps 738 mmHg 49%
    14:00 +15°C° 0.1 mm 6 mps 738 mmHg 54%
    15:00 +14°C° 0.1 mm 6 mps 737 mmHg 59%
    16:00 +13°C° 0.1 mm 5 mps 737 mmHg 65%
    17:00 +9°C° 1.7 mm 5 mps 738 mmHg 75%
    18:00 +6°C° 1.7 mm 4 mps 739 mmHg 85%
    19:00 +3°C° 1.7 mm 4 mps 739 mmHg 96%
    20:00 +4°C° 0.6 mm 3 mps 740 mmHg 95%
    21:00 +4°C° 0.6 mm 3 mps 741 mmHg 94%
    22:00 +4°C° 0.6 mm 3 mps 742 mmHg 93%
    23:00 +3°C° 0 mm 3 mps 742 mmHg 93%

    Day after tomorrow, 25 August, Sunday

    Time Temperature Precipitation Wind Pressure Humidity
    00:00 +2°C° 0 mm 3 mps 743 mmHg 93%
    01:00 +1°C° 0 mm 4 mps 744 mmHg 92%
    02:00 +1°C° 0 mm 3 mps 744 mmHg 92%
    03:00 +1°C° 0 mm 3 mps 744 mmHg 92%
    04:00 +1°C° 0 mm 3 mps 745 mmHg 91%
    05:00 +1°C° 0 mm 3 mps 745 mmHg 91%
    06:00 +1°C° 0 mm 3 mps 746 mmHg 91%
    07:00 +1°C° 0 mm 3 mps 746 mmHg 91%
    08:00 +2°C° 0 mm 3 mps 747 mmHg 87%
    09:00 +4°C° 0 mm 3 mps 747 mmHg 82%
    10:00 +7°C° 0 mm 3 mps 747 mmHg 78%
    11:00 +8°C° 0 mm 3 mps 747 mmHg 71%
    12:00 +8°C° 0 mm 4 mps 747 mmHg 64%
    13:00 +10°C° 0 mm 4 mps 747 mmHg 57%
    14:00 +10°C° 0 mm 4 mps 747 mmHg 58%
    15:00 +10°C° 0 mm 3 mps 747 mmHg 59%
    16:00 +9°C° 0 mm 3 mps 747 mmHg 61%
    17:00 +8°C° 0 mm 3 mps 748 mmHg 67%
    18:00 +7°C° 0 mm 3 mps 748 mmHg 74%
    19:00 +6°C° 0 mm 2 mps 749 mmHg 80%
    20:00 +5°C° 0 mm 2 mps 749 mmHg 83%
    21:00 +5°C° 0 mm 2 mps 749 mmHg 86%
    22:00 +5°C° 0 mm 2 mps 749 mmHg 89%
    23:00 +5°C° 0 mm 2 mps 749 mmHg 87%

    26 August, Monday

    Time Temperature Precipitation Wind Pressure Humidity
    00:00 +6°C° 0 mm 2 mps 749 mmHg 86%
    01:00 +5°C° 0 mm 3 mps 749 mmHg 85%
    02:00 +6°C° 0 mm 2 mps 749 mmHg 86%
    03:00 +6°C° 0 mm 2 mps 749 mmHg 87%
    04:00 +6°C° 0 mm 2 mps 749 mmHg 88%
    05:00 +6°C° 0 mm 2 mps 750 mmHg 89%
    06:00 +6°C° 0 mm 2 mps 750 mmHg 89%
    07:00 +6°C° 0 mm 2 mps 750 mmHg 89%
    08:00 +7°C° 0 mm 3 mps 750 mmHg 84%
    09:00 +8°C° 0 mm 3 mps 750 mmHg 79%
    10:00 +9°C° 0 mm 3 mps 751 mmHg 74%
    11:00 +10°C° 0 mm 3 mps 750 mmHg 71%
    12:00 +11°C° 0 mm 3 mps 750 mmHg 68%
    13:00 +11°C° 0 mm 4 mps 750 mmHg 65%
    14:00 +11°C° 0 mm 3 mps 750 mmHg 67%
    15:00 +11°C° 0 mm 3 mps 750 mmHg 70%
    16:00 +10°C° 0 mm 3 mps 750 mmHg 72%
    17:00 +10°C° 0 mm 3 mps 750 mmHg 75%
    18:00 +9°C° 0 mm 3 mps 750 mmHg 78%
    19:00 +8°C° 0 mm 3 mps 751 mmHg 81%
    20:00 +8°C° 0 mm 3 mps 751 mmHg 82%
    21:00 +8°C° 0 mm 3 mps 751 mmHg 83%
    22:00 +8°C° 0 mm 3 mps 751 mmHg 84%
    23:00 +8°C° 0 mm 3 mps 751 mmHg 84%

    27 August, Tuesday

    Time Temperature Precipitation Wind Pressure Humidity
    00:00 +8°C° 0 mm 3 mps 751 mmHg 84%
    01:00 +8°C° 0 mm 3 mps 750 mmHg 84%
    02:00 +8°C° 0 mm 3 mps 750 mmHg 84%
    03:00 +8°C° 0 mm 3 mps 750 mmHg 84%
    04:00 +8°C° 0 mm 3 mps 750 mmHg 84%
    05:00 +8°C° 0 mm 3 mps 750 mmHg 84%
    06:00 +8°C° 0 mm 3 mps 750 mmHg 84%
    07:00 +7°C° 0 mm 3 mps 750 mmHg 85%
    08:00 +9°C° 0 mm 3 mps 750 mmHg 79%
    09:00 +10°C° 0 mm 4 mps 750 mmHg 73%
    10:00 +11°C° 0 mm 4 mps 750 mmHg 67%
    11:00 +12°C° 0 mm 4 mps 750 mmHg 64%
    12:00 +12°C° 0 mm 5 mps 749 mmHg 62%
    13:00 +13°C° 0 mm 5 mps 749 mmHg 60%
    14:00 +12°C° 0 mm 4 mps 749 mmHg 65%
    15:00 +11°C° 0 mm 4 mps 748 mmHg 70%
    16:00 +10°C° 0 mm 3 mps 748 mmHg 75%
    17:00 +10°C° 0 mm 3 mps 748 mmHg 78%
    18:00 +9°C° 0 mm 3 mps 749 mmHg 81%
    19:00 +9°C° 0 mm 3 mps 749 mmHg 83%
    20:00 +9°C° 0 mm 3 mps 749 mmHg 83%
    21:00 +9°C° 0 mm 3 mps 749 mmHg 83%
    22:00 +8°C° 0 mm 3 mps 748 mmHg 84%
    23:00 +9°C° 0 mm 3 mps 748 mmHg 83%

    28 August, Wednesday

    Time Temperature Precipitation Wind Pressure Humidity
    00:00 +9°C° 0 mm 3 mps 748 mmHg 83%
    01:00 +9°C° 0 mm 3 mps 747 mmHg 82%
    02:00 +9°C° 0 mm 3 mps 747 mmHg 83%
    03:00 +8°C° 0 mm 4 mps 746 mmHg 83%
    04:00 +7°C° 0 mm 4 mps 746 mmHg 84%
    05:00 +7°C° 0 mm 4 mps 746 mmHg 83%
    06:00 +7°C° 0 mm 4 mps 745 mmHg 82%
    07:00 +7°C° 0 mm 4 mps 745 mmHg 81%
    08:00 +8°C° 0.1 mm 4 mps 744 mmHg 79%
    09:00 +10°C° 0.1 mm 4 mps 744 mmHg 77%
    10:00 +10°C° 0.1 mm 5 mps 743 mmHg 76%
    11:00 +10°C° 0.1 mm 5 mps 743 mmHg 75%
    12:00 +10°C° 0.1 mm 5 mps 743 mmHg 75%
    13:00 +10°C° 0.1 mm 5 mps 742 mmHg 74%
    14:00 +8°C° 1.5 mm 5 mps 743 mmHg 81%
    15:00 +6°C° 1.5 mm 5 mps 743 mmHg 89%
    16:00 +3°C° 1.5 mm 5 mps 743 mmHg 96%
    17:00 +3°C° 0.4 mm 5 mps 744 mmHg 94%
    18:00 +4°C° 0.4 mm 4 mps 745 mmHg 92%
    19:00 +4°C° 0.4 mm 3 mps 746 mmHg 90%
    20:00 +3°C° 0 mm 3 mps 747 mmHg 89%
    21:00 +3°C° 0 mm 4 mps 748 mmHg 89%
    22:00 +1°C° 0 mm 4 mps 749 mmHg 88%
    23:00 +1°C° 0 mm 4 mps 749 mmHg 88%
    Show more